Satellite-Ground Cal/Val Site Overpasses Predictions

Prediction of Satellite NPP Overpassing Cal/Val Site: Antarctic Dome C

Ground Cal/Val Site Location: Latitude: -75.10, Longitude: 123.35; Satellite-Ground Site NADIR distance within 100 km.

Table of predicted overpasses for the next 14.0 days since TLE Epoch: 4/13/2025
Interval Starting Time Ending Time Minimum Distance Time Minimum Distance (km)
1 04/14/2025 15:02:03 04/14/2025 15:02:27 04/14/2025 15:02:15 60.53
2 04/15/2025 14:43:15 04/15/2025 14:43:40 04/15/2025 14:43:28 48.48
3 04/16/2025 07:44:58 04/16/2025 07:45:19 04/16/2025 07:45:08 68.00
4 04/17/2025 07:26:07 04/17/2025 07:26:33 04/17/2025 07:26:20 39.78
5 04/19/2025 15:08:39 04/19/2025 15:08:43 04/19/2025 15:08:41 98.83
6 04/20/2025 14:49:38 04/20/2025 14:50:07 04/20/2025 14:49:53 12.29
7 04/22/2025 07:32:31 04/22/2025 07:33:00 04/22/2025 07:32:45 2.92
8 04/25/2025 14:56:02 04/25/2025 14:56:31 04/25/2025 14:56:16 24.70
